Location: Chuathbaluk
(61.5726°N, 159.2454°W)
Time: 04:02:33
(UTC+00:00)

Transit 2A - Pass Details

Date: 30 November 2020
Orbit: 599 x 960 km, 66.7° (Epoch: 26 January)

Event Time Altitude Azimuth Distance (km) Brightness Sun altitude
Rises 10:04:58 0° 300° (WNW) 3,471 - -50.0°
Reaches altitude 10° 10:07:35 10° 302° (WNW) 2,478 - -50.1°
Maximum altitude 10:13:17 74° 28° (NNE) 820 - -50.1°
Drops below altitude 10° 10:18:23 10° 114° (ESE) 2,223 - -50.2°
Sets 10:20:38 0° 117° (ESE) 3,088 - -50.2°
